User: anonymous   Login
Location: Unspecified
(0.0000°N, 0.0000°E)
Time: 01:51:10
(UTC+00:00)
Language:

STARLINK-34365 - Orbit

View from above orbital plane
View from above orbital plane
View from above satellite
View from above satellite

Ground track
Ground track

The orbit is defined by the following mean orbital elements,

1 64671U          26145.37418554 +.00000000 +00000-0 +72410-3 0 00009
2 64671  53.1583 130.2281 0001134  82.8195 277.2936 15.34404828    05
Epoch (UTC): 25 May 2026 08:58:49
Eccentricity: 0.0001134
inclination: 53.1583°
perigee height: 462 km
apogee height: 463 km
right ascension of ascending node: 130.2281°
argument of perigee: 82.8195°
revolutions per day: 15.34404828
mean anomaly at epoch: 277.2936°

The dashed part of the orbit path shows where the satellite is in the earth's shadow,  

DLR